CPA321 VHHH-LEMD

Flight info

Callsign CPA321
Flight time N/A
Altitude 34100
Route BEKOL A461 SHL W22 TEPID W24 OSNOV G586 QP B330 ELKAL W179 IGNAK/K0924S1070 W179 WFX/K0917S1100 W179 OMBON W195 VIDEK/K0922S1070 W195 LAXAL/K0915S1100 W195 IDOPA W197 ANDIM B215 IBANO G470 AKLAS W192 FKG A368 SALMO/K0902S1160 A368 SARIN/K0902F380 N161 GASBI/N0486F400 N161 LEYLA T916 MATAL DCT TABAS DCT REBLO UM11 CRM UM688 EKSUK UL852 NEGEM DCT DOLAP DCT VEBAR DCT ELTIB DCT BAXON/N0487F410 DCT LUTOR DCT GEKBA DCT VAMTU DCT KOLON DCT GANGU DCT PADKO DCT DIVKO DCT NILDU DCT NENDA DCT BCN DCT ANTON DCT XIKEN DCT OSLAP DCT SALAS DCT RAMON DCT NEXAS DCT DISVU DCT ADUXO
Aircraft A359/H-SDE2E3GHIJ3J4J5LM1ORWXY/LB1D1

Departure

Time 2026-04-30 18:19
Airport Hong Kong International Airport (VHHH)

Arrival

Time N/A
Airport Adolfo Suárez Madrid–Barajas Airport (LEMD)
Time Latitude Longitude Altitude Speed Heading
2026-04-30 17:41 22.31341 113.92471 39 ft 0 kts 26°
2026-04-30 18:07 22.31339 113.92470 39 ft 1 kts 26°
2026-04-30 18:08 22.31303 113.92451 39 ft 2 kts 26°
2026-04-30 18:09 22.31256 113.92465 39 ft 0 kts 297°
2026-04-30 18:10 22.31255 113.92470 39 ft 0 kts 297°
2026-04-30 18:11 22.31262 113.92454 39 ft 0 kts 297°
2026-04-30 18:11 22.31300 113.92375 39 ft 11 kts 297°
2026-04-30 18:12 22.31431 113.92111 39 ft 14 kts 317°
2026-04-30 18:13 22.31597 113.91998 39 ft 14 kts 287°
2026-04-30 18:13 22.31522 113.91708 39 ft 15 kts 251°
2026-04-30 18:14 22.31435 113.91435 39 ft 17 kts 250°
2026-04-30 18:15 22.31311 113.91055 39 ft 18 kts 251°
2026-04-30 18:15 22.31180 113.90644 39 ft 19 kts 251°
2026-04-30 18:16 22.31086 113.90356 39 ft 20 kts 251°
2026-04-30 18:16 22.30989 113.90051 39 ft 21 kts 251°
2026-04-30 18:17 22.30938 113.89894 39 ft 22 kts 251°
2026-04-30 18:17 22.30922 113.89821 39 ft 4 kts 288°
2026-04-30 18:17 22.30970 113.89778 39 ft 5 kts 341°
2026-04-30 18:18 22.31006 113.89765 39 ft 5 kts 341°
2026-04-30 18:18 22.31046 113.89761 39 ft 5 kts 13°
2026-04-30 18:18 22.31080 113.89790 39 ft 6 kts 52°
2026-04-30 18:18 22.31126 113.89903 39 ft 35 kts 71°
2026-04-30 18:19 22.31279 113.90379 39 ft 99 kts 71°
2026-04-30 18:19 22.31577 113.91298 40 ft 156 kts 71°
2026-04-30 18:19 22.31981 113.92556 200 ft 189 kts 70°
2026-04-30 18:19 22.32413 113.93825 1009 ft 177 kts 70°
2026-04-30 18:20 22.32812 113.95058 1475 ft 176 kts 71°
2026-04-30 18:20 22.33209 113.96329 1836 ft 183 kts 73°
2026-04-30 18:20 22.33519 113.97725 2122 ft 197 kts 79°
2026-04-30 18:20 22.33765 113.99218 2411 ft 211 kts 79°
2026-04-30 18:21 22.34029 114.00854 2731 ft 225 kts 79°
2026-04-30 18:21 22.34303 114.02548 3235 ft 230 kts 80°
2026-04-30 18:21 22.34298 114.04263 3754 ft 235 kts 109°
2026-04-30 18:21 22.33384 114.05711 4340 ft 236 kts 136°
2026-04-30 18:22 22.32168 114.06947 4803 ft 244 kts 136°
2026-04-30 18:22 22.29342 114.08963 5796 ft 249 kts 175°
2026-04-30 18:22 22.27624 114.08993 6377 ft 247 kts 185°
2026-04-30 18:23 22.25876 114.08875 6856 ft 253 kts 186°
2026-04-30 18:23 22.24093 114.08777 7283 ft 260 kts 185°
2026-04-30 18:23 22.22231 114.08707 7546 ft 274 kts 184°
2026-04-30 18:23 22.20285 114.08664 7863 ft 284 kts 183°
2026-04-30 18:24 22.16681 114.10220 7922 ft 294 kts 129°
2026-04-30 18:24 22.15785 114.12193 7943 ft 297 kts 101°
2026-04-30 18:24 22.15624 114.14439 7959 ft 301 kts 92°
2026-04-30 18:25 22.15545 114.16694 7958 ft 301 kts 93°
2026-04-30 18:25 22.15315 114.21231 7970 ft 302 kts 94°
2026-04-30 18:25 22.15181 114.23492 7967 ft 301 kts 92°
2026-04-30 18:26 22.15625 114.27984 7973 ft 301 kts 77°
2026-04-30 18:26 22.16100 114.30167 7966 ft 301 kts 76°
2026-04-30 18:26 22.16590 114.32352 7973 ft 301 kts 76°
2026-04-30 18:27 22.17557 114.36755 7963 ft 301 kts 76°
2026-04-30 18:27 22.18032 114.38965 7958 ft 301 kts 76°
2026-04-30 18:28 22.20395 114.42481 8542 ft 298 kts 19°
2026-04-30 18:28 22.22372 114.42899 9160 ft 287 kts 352°
2026-04-30 18:28 22.25656 114.42261 9904 ft 290 kts 345°
2026-04-30 18:29 22.27658 114.41846 10303 ft 296 kts 346°
2026-04-30 18:29 22.34130 114.40577 10980 ft 331 kts 346°
2026-04-30 18:30 22.38013 114.39840 11353 ft 350 kts 347°
2026-04-30 18:30 22.43883 114.38728 11839 ft 376 kts 347°
2026-04-30 18:31 22.46489 114.38123 12020 ft 383 kts 337°
2026-04-30 18:31 22.50467 114.34496 12617 ft 383 kts 297°
2026-04-30 18:32 22.51825 114.28966 13464 ft 385 kts 279°
2026-04-30 18:32 22.52278 114.26086 13825 ft 389 kts 279°
2026-04-30 18:32 22.53210 114.20287 14586 ft 394 kts 279°
2026-04-30 18:33 22.53719 114.17405 14963 ft 396 kts 284°
2026-04-30 18:33 22.56739 114.12415 15711 ft 407 kts 319°
2026-04-30 18:33 22.59190 114.10798 16080 ft 413 kts 331°
2026-04-30 18:34 22.61793 114.09467 16457 ft 415 kts 332°
2026-04-30 18:34 22.67070 114.06781 17095 ft 421 kts 332°
2026-04-30 18:34 22.69763 114.05405 17450 ft 423 kts 331°
2026-04-30 18:35 22.72436 114.04034 17792 ft 425 kts 331°
2026-04-30 18:35 22.75093 114.02668 18129 ft 426 kts 332°
2026-04-30 18:35 22.77777 114.01286 18432 ft 429 kts 332°
2026-04-30 18:36 22.83207 113.98490 19045 ft 433 kts 332°
2026-04-30 18:36 22.85916 113.97093 19357 ft 435 kts 332°
2026-04-30 18:36 22.91443 113.94239 19980 ft 438 kts 331°
2026-04-30 18:37 22.93927 113.92947 20248 ft 440 kts 331°
2026-04-30 18:37 22.96404 113.91657 20512 ft 441 kts 332°
2026-04-30 18:37 22.99187 113.90207 20813 ft 443 kts 332°
2026-04-30 18:37 23.01766 113.88862 21072 ft 444 kts 332°
2026-04-30 18:38 23.04553 113.87409 21339 ft 446 kts 331°
2026-04-30 18:38 23.07274 113.85812 21623 ft 445 kts 326°
2026-04-30 18:38 23.09830 113.83945 21896 ft 445 kts 321°
2026-04-30 18:38 23.12249 113.81789 22136 ft 446 kts 316°
2026-04-30 18:39 23.14524 113.79481 22403 ft 447 kts 314°
2026-04-30 18:39 23.16786 113.77123 22650 ft 449 kts 314°
2026-04-30 18:39 23.19036 113.74764 22876 ft 451 kts 314°
2026-04-30 18:39 23.21279 113.72408 23125 ft 452 kts 314°
2026-04-30 18:40 23.23536 113.70039 23379 ft 453 kts 314°
2026-04-30 18:40 23.25824 113.67641 23624 ft 455 kts 314°
2026-04-30 18:40 23.28090 113.65263 23856 ft 456 kts 314°
2026-04-30 18:40 23.30392 113.62847 24096 ft 458 kts 314°
2026-04-30 18:41 23.32666 113.60460 24307 ft 460 kts 314°
2026-04-30 18:41 23.34972 113.58038 24518 ft 462 kts 314°
2026-04-30 18:41 23.37295 113.55598 24730 ft 463 kts 314°
2026-04-30 18:41 23.39625 113.53150 24936 ft 465 kts 314°
2026-04-30 18:42 23.41947 113.50709 25157 ft 466 kts 314°
2026-04-30 18:42 23.46626 113.45782 25536 ft 470 kts 314°
2026-04-30 18:42 23.48990 113.43291 25733 ft 471 kts 314°
2026-04-30 18:45 23.70214 113.16063 27606 ft 475 kts 293°
2026-04-30 18:45 23.71571 113.12773 27881 ft 473 kts 293°
2026-04-30 18:45 23.72898 113.09528 28127 ft 472 kts 293°
2026-04-30 18:46 23.74244 113.06250 28359 ft 472 kts 293°
2026-04-30 18:46 23.75658 113.03046 28542 ft 473 kts 300°
2026-04-30 18:46 23.77661 113.00170 28735 ft 475 kts 313°
2026-04-30 18:46 23.80183 112.97876 29002 ft 476 kts 325°
2026-04-30 18:47 23.83130 112.96220 29217 ft 480 kts 337°
2026-04-30 18:47 23.86327 112.95094 29464 ft 480 kts 341°
2026-04-30 18:47 23.89509 112.94066 29676 ft 480 kts 341°
2026-04-30 18:47 23.92729 112.93031 29841 ft 480 kts 341°
2026-04-30 18:48 23.95908 112.91991 30036 ft 480 kts 340°
2026-04-30 18:48 23.99134 112.90922 30305 ft 478 kts 340°
2026-04-30 18:48 24.02296 112.89869 30588 ft 476 kts 340°
2026-04-30 18:48 24.05436 112.88822 30832 ft 474 kts 340°
2026-04-30 18:49 24.08602 112.87768 31045 ft 474 kts 340°
2026-04-30 18:49 24.11799 112.86706 31278 ft 472 kts 340°
2026-04-30 18:49 24.14930 112.85667 31514 ft 471 kts 340°
2026-04-30 18:49 24.18074 112.84624 31724 ft 470 kts 340°
2026-04-30 18:50 24.21210 112.83585 31924 ft 469 kts 340°
2026-04-30 18:50 24.24371 112.82534 32115 ft 468 kts 340°
2026-04-30 18:50 24.27483 112.81499 32293 ft 467 kts 340°
2026-04-30 18:50 24.30572 112.80470 32481 ft 466 kts 340°
2026-04-30 18:51 24.33655 112.79443 32667 ft 465 kts 340°
2026-04-30 18:51 24.36780 112.78400 32840 ft 464 kts 340°
2026-04-30 18:51 24.39775 112.77195 32964 ft 460 kts 331°
2026-04-30 18:51 24.42537 112.75431 33151 ft 454 kts 321°
2026-04-30 18:52 24.44920 112.73233 33348 ft 449 kts 312°
2026-04-30 18:52 24.46944 112.70617 33489 ft 446 kts 303°
2026-04-30 18:52 24.48513 112.67725 33591 ft 444 kts 294°
2026-04-30 18:53 24.50259 112.61307 33758 ft 443 kts 277°
2026-04-30 18:53 24.50618 112.57929 33885 ft 442 kts 276°
2026-04-30 18:53 24.50939 112.54618 33971 ft 442 kts 276°
2026-04-30 18:54 24.51581 112.47883 34107 ft 443 kts 276°
2026-04-30 18:54 24.51903 112.44513 34239 ft 442 kts 276°
2026-04-30 18:54 24.52222 112.41190 34360 ft 442 kts 276°
2026-04-30 18:54 24.52545 112.37821 34470 ft 441 kts 276°
2026-04-30 18:55 24.52865 112.34490 34554 ft 441 kts 276°
2026-04-30 18:55 24.53500 112.27820 34734 ft 441 kts 276°
2026-04-30 18:55 24.53818 112.24481 34847 ft 440 kts 276°
2026-04-30 18:56 24.54454 112.17769 35027 ft 440 kts 276°
2026-04-30 18:56 24.54772 112.14413 35127 ft 439 kts 276°
2026-04-30 18:56 24.55083 112.11114 35233 ft 438 kts 276°
2026-04-30 18:57 24.55713 112.04429 35371 ft 438 kts 276°
2026-04-30 18:57 24.56335 111.97791 35464 ft 438 kts 276°
2026-04-30 18:58 24.56918 111.91554 35606 ft 437 kts 276°
2026-04-30 18:58 24.57204 111.88465 35640 ft 438 kts 276°
2026-04-30 18:59 24.58086 111.78944 35771 ft 437 kts 276°
2026-04-30 19:00 24.59307 111.65659 35876 ft 438 kts 276°
2026-04-30 19:01 24.60508 111.52459 35998 ft 438 kts 276°
2026-04-30 19:02 24.61409 111.42483 36027 ft 439 kts 276°
2026-04-30 19:03 24.62598 111.29167 36138 ft 439 kts 276°
2026-04-30 19:04 24.63747 111.15814 36240 ft 439 kts 276°
2026-04-30 19:05 24.64891 111.02487 36301 ft 440 kts 276°
2026-04-30 19:06 24.66036 110.89117 36374 ft 440 kts 278°
2026-04-30 19:06 24.68476 110.79458 36440 ft 439 kts 295°
2026-04-30 19:07 24.73427 110.71063 36459 ft 440 kts 311°
2026-04-30 19:08 24.82211 110.61646 36521 ft 441 kts 315°
2026-04-30 19:09 24.88840 110.54672 36583 ft 440 kts 315°
2026-04-30 19:09 24.93260 110.50007 36640 ft 439 kts 315°
2026-04-30 19:10 25.02049 110.40717 36670 ft 439 kts 315°
2026-04-30 19:11 25.08660 110.33736 36716 ft 438 kts 314°
2026-04-30 19:12 25.12978 110.29163 36787 ft 437 kts 314°
2026-04-30 19:12 25.17371 110.24522 36857 ft 437 kts 314°
2026-04-30 19:13 25.26192 110.15248 36870 ft 437 kts 315°
2026-04-30 19:14 25.30601 110.10635 36956 ft 436 kts 315°
2026-04-30 19:14 25.34961 110.06065 37028 ft 435 kts 315°
2026-04-30 19:15 25.39354 110.01453 37054 ft 434 kts 315°
2026-04-30 19:15 25.45898 109.94573 37097 ft 433 kts 315°
2026-04-30 19:16 25.50264 109.89977 37102 ft 433 kts 315°
2026-04-30 19:17 25.56794 109.83092 37138 ft 432 kts 315°
2026-04-30 19:17 25.63317 109.76204 37132 ft 432 kts 315°
2026-04-30 19:18 25.69840 109.69306 37142 ft 431 kts 314°
2026-04-30 19:19 25.73831 109.64367 37117 ft 430 kts 307°
2026-04-30 19:19 25.78472 109.55922 37139 ft 429 kts 295°
2026-04-30 19:20 25.80586 109.49792 37159 ft 429 kts 288°
2026-04-30 19:21 25.83108 109.40288 37115 ft 429 kts 288°
2026-04-30 19:22 25.86432 109.27601 37115 ft 428 kts 287°
2026-04-30 19:23 25.91406 109.08581 37108 ft 429 kts 287°
2026-04-30 19:24 25.93906 108.99071 37111 ft 428 kts 288°
2026-04-30 19:25 25.98112 108.83255 37163 ft 427 kts 288°
2026-04-30 19:26 26.01452 108.70634 37202 ft 425 kts 288°
2026-04-30 19:27 26.03959 108.61201 37170 ft 425 kts 288°
2026-04-30 19:28 26.06464 108.51771 37175 ft 425 kts 288°
2026-04-30 19:29 26.09998 108.39368 37061 ft 426 kts 292°
2026-04-30 19:30 26.15037 108.27344 37086 ft 426 kts 295°
2026-04-30 19:31 26.20160 108.15492 37208 ft 424 kts 295°
2026-04-30 19:31 26.23987 108.06620 37274 ft 424 kts 295°
2026-04-30 19:32 26.26513 108.00752 37286 ft 424 kts 295°
2026-04-30 19:32 26.29057 107.94831 37280 ft 424 kts 295°
2026-04-30 19:33 26.31598 107.88905 37334 ft 423 kts 295°
2026-04-30 19:33 26.34112 107.83039 37345 ft 422 kts 295°
2026-04-30 19:34 26.36639 107.77133 37326 ft 423 kts 295°
2026-04-30 19:35 26.40419 107.68289 37307 ft 423 kts 295°
2026-04-30 19:35 26.42954 107.62337 37283 ft 423 kts 295°
2026-04-30 19:36 26.45472 107.56426 37276 ft 423 kts 295°
2026-04-30 19:36 26.49232 107.47572 37268 ft 423 kts 295°
2026-04-30 19:37 26.51741 107.41648 37231 ft 423 kts 295°
2026-04-30 19:37 26.54254 107.35706 37206 ft 423 kts 295°
2026-04-30 19:38 26.56759 107.29767 37258 ft 423 kts 294°
2026-04-30 19:38 26.59265 107.23830 37252 ft 423 kts 295°
2026-04-30 19:39 26.61774 107.17889 37198 ft 424 kts 294°
2026-04-30 19:39 26.64291 107.11935 37162 ft 425 kts 295°
2026-04-30 19:40 26.66830 107.05962 37112 ft 427 kts 295°
2026-04-30 19:40 26.69365 106.99997 37182 ft 425 kts 295°
2026-04-30 19:41 26.71905 106.94003 37174 ft 426 kts 295°
2026-04-30 19:41 26.73164 106.91030 37287 ft 423 kts 295°
2026-04-30 19:41 26.74428 106.88073 37259 ft 424 kts 296°
2026-04-30 19:42 26.77338 106.82354 37195 ft 426 kts 302°
2026-04-30 19:42 26.80850 106.76965 37225 ft 427 kts 307°
2026-04-30 19:43 26.84839 106.72105 37354 ft 426 kts 313°
2026-04-30 19:44 26.91463 106.65484 37419 ft 426 kts 316°
2026-04-30 19:44 26.95949 106.61090 37374 ft 427 kts 316°
2026-04-30 19:45 27.00384 106.56742 37403 ft 426 kts 315°
2026-04-30 19:45 27.04853 106.52356 37381 ft 426 kts 315°
2026-04-30 19:46 27.09295 106.47987 37315 ft 427 kts 315°
2026-04-30 19:46 27.13721 106.43654 37289 ft 428 kts 316°
2026-04-30 19:47 27.18233 106.39223 37250 ft 428 kts 315°
2026-04-30 19:47 27.22702 106.34849 37289 ft 428 kts 315°
2026-04-30 19:48 27.27216 106.30450 37341 ft 427 kts 315°
2026-04-30 19:48 27.31698 106.26073 37378 ft 427 kts 315°
2026-04-30 19:49 27.36194 106.21683 37351 ft 428 kts 315°
2026-04-30 19:49 27.42944 106.15093 37386 ft 428 kts 315°
2026-04-30 19:50 27.47430 106.10706 37376 ft 429 kts 315°
2026-04-30 19:50 27.51937 106.06295 37361 ft 430 kts 315°
2026-04-30 19:51 27.56436 106.01885 37354 ft 430 kts 315°
2026-04-30 19:51 27.60944 105.97463 37364 ft 430 kts 315°
2026-04-30 19:52 27.65458 105.93024 37378 ft 430 kts 314°
2026-04-30 19:52 27.69535 105.88171 37371 ft 426 kts 306°
2026-04-30 19:53 27.72890 105.82686 37399 ft 423 kts 297°
2026-04-30 19:53 27.75438 105.76744 37277 ft 423 kts 289°
2026-04-30 19:54 27.76408 105.73634 37171 ft 424 kts 287°
2026-04-30 19:54 27.77317 105.70446 37067 ft 426 kts 287°
2026-04-30 19:54 27.78206 105.67293 36958 ft 428 kts 287°
2026-04-30 19:54 27.79116 105.64076 36885 ft 430 kts 287°
2026-04-30 19:55 27.81264 105.57782 36858 ft 431 kts 292°
2026-04-30 19:55 27.83651 105.51603 36884 ft 431 kts 292°
2026-04-30 19:56 27.86053 105.45401 36905 ft 431 kts 292°
2026-04-30 19:56 27.88459 105.39226 36931 ft 431 kts 294°
2026-04-30 19:57 27.91135 105.33131 36966 ft 431 kts 294°
2026-04-30 19:57 27.93831 105.27104 37037 ft 431 kts 296°
2026-04-30 19:58 27.97078 105.21408 37130 ft 433 kts 304°
2026-04-30 19:58 28.01085 105.16312 37382 ft 432 kts 312°
2026-04-30 19:59 28.03307 105.14070 37691 ft 429 kts 316°
2026-04-30 19:59 28.05677 105.12019 37852 ft 428 kts 320°
2026-04-30 20:00 28.13302 105.06575 37839 ft 431 kts 323°
2026-04-30 20:00 28.18419 105.03027 37794 ft 432 kts 323°
2026-04-30 20:01 28.26090 104.97671 37809 ft 431 kts 323°
2026-04-30 20:01 28.31188 104.94099 37799 ft 431 kts 323°
2026-04-30 20:02 28.38832 104.88733 37727 ft 432 kts 323°
2026-04-30 20:03 28.46526 104.83356 37695 ft 432 kts 323°
2026-04-30 20:03 28.51630 104.79786 37664 ft 433 kts 323°
2026-04-30 20:04 28.56760 104.76193 37642 ft 433 kts 323°
2026-04-30 20:05 28.64448 104.70801 37611 ft 433 kts 323°
2026-04-30 20:05 28.72139 104.65395 37619 ft 432 kts 323°
2026-04-30 20:06 28.77248 104.61803 37625 ft 432 kts 323°
2026-04-30 20:06 28.82355 104.58202 37588 ft 432 kts 323°
2026-04-30 20:07 28.87475 104.54582 37568 ft 432 kts 323°
2026-04-30 20:08 28.95133 104.49127 37486 ft 434 kts 322°
2026-04-30 20:08 29.00248 104.45480 37462 ft 434 kts 322°
2026-04-30 20:09 29.05348 104.41837 37436 ft 434 kts 322°
2026-04-30 20:09 29.13050 104.36343 37438 ft 434 kts 322°
2026-04-30 20:10 29.20832 104.30994 37485 ft 438 kts 328°
2026-04-30 20:11 29.29719 104.27907 37526 ft 453 kts 346°
2026-04-30 20:11 29.36095 104.27696 37519 ft 465 kts 358°
2026-04-30 20:12 29.45764 104.29243 37551 ft 469 kts
2026-04-30 20:13 29.52196 104.30362 37556 ft 469 kts
2026-04-30 20:13 29.58668 104.31476 37574 ft 470 kts
2026-04-30 20:14 29.65144 104.32584 37610 ft 470 kts
2026-04-30 20:14 29.71605 104.33687 37639 ft 470 kts
2026-04-30 20:15 29.78058 104.34790 37669 ft 470 kts
2026-04-30 20:15 29.84532 104.35901 37728 ft 469 kts
2026-04-30 20:16 29.91000 104.37011 37770 ft 469 kts
2026-04-30 20:16 29.97451 104.38121 37807 ft 469 kts
2026-04-30 20:17 30.03915 104.39236 37795 ft 470 kts
2026-04-30 20:17 30.10370 104.40354 37769 ft 471 kts
2026-04-30 20:18 30.16868 104.41473 37773 ft 471 kts
2026-04-30 20:18 30.23364 104.42595 37853 ft 470 kts
2026-04-30 20:19 30.29810 104.43719 37911 ft 469 kts
2026-04-30 20:19 30.36279 104.44850 37897 ft 470 kts
2026-04-30 20:20 30.42724 104.45985 37941 ft 469 kts
2026-04-30 20:20 30.49187 104.47121 37905 ft 470 kts
2026-04-30 20:21 30.55654 104.47877 37958 ft 463 kts 354°
2026-04-30 20:21 30.62038 104.47547 37968 ft 454 kts 346°
2026-04-30 20:22 30.68177 104.46178 37935 ft 447 kts 337°
2026-04-30 20:22 30.74077 104.44026 37923 ft 445 kts 334°
2026-04-30 20:23 30.79981 104.41758 37915 ft 446 kts 336°
2026-04-30 20:23 30.86036 104.39970 37920 ft 452 kts 342°
2026-04-30 20:24 30.92283 104.38932 37929 ft 458 kts 348°
2026-04-30 20:24 30.98701 104.38606 37963 ft 462 kts 351°
2026-04-30 20:25 31.08331 104.38390 37999 ft 462 kts 352°
2026-04-30 20:26 31.17988 104.38155 37992 ft 462 kts 351°
2026-04-30 20:26 31.27636 104.37862 37967 ft 462 kts 350°
2026-04-30 20:27 31.40468 104.37067 37994 ft 461 kts 350°
2026-04-30 20:28 31.53298 104.36309 37994 ft 462 kts 350°
2026-04-30 20:30 31.69401 104.35377 38016 ft 463 kts 350°
2026-04-30 20:31 31.88724 104.34312 38065 ft 464 kts 351°
2026-04-30 20:32 32.04855 104.33485 38094 ft 465 kts 351°
2026-04-30 20:33 32.14614 104.32987 38141 ft 465 kts 351°
2026-04-30 20:34 32.24332 104.32494 38173 ft 465 kts 351°
2026-04-30 20:35 32.34035 104.32001 38196 ft 465 kts 351°
2026-04-30 20:35 32.43733 104.31506 38193 ft 466 kts 351°
2026-04-30 20:36 32.50176 104.31195 38225 ft 466 kts 351°
2026-04-30 20:37 32.59896 104.30731 38171 ft 467 kts 352°
2026-04-30 20:37 32.66421 104.30410 38220 ft 466 kts 352°
2026-04-30 20:38 32.72892 104.30097 38278 ft 466 kts 352°
2026-04-30 20:38 32.79317 104.29793 38320 ft 465 kts 352°
2026-04-30 20:39 32.89060 104.29320 38289 ft 466 kts 352°
2026-04-30 20:40 32.98756 104.28840 38304 ft 467 kts 352°
2026-04-30 20:40 33.05267 104.28525 38300 ft 468 kts 352°
2026-04-30 20:41 33.15012 104.28061 38340 ft 467 kts 352°
2026-04-30 20:41 33.21502 104.27755 38412 ft 466 kts 352°
2026-04-30 20:42 33.28000 104.27341 38406 ft 463 kts 348°
2026-04-30 20:43 33.37331 104.24915 38403 ft 454 kts 335°
2026-04-30 20:43 33.43065 104.22024 38395 ft 447 kts 327°
2026-04-30 20:44 33.51192 104.16580 38361 ft 448 kts 327°
2026-04-30 20:45 33.63135 104.11747 38307 ft 462 kts 346°
2026-04-30 20:45 33.69596 104.11108 38353 ft 467 kts 354°
2026-04-30 20:46 33.82604 104.11077 38325 ft 469 kts 355°
2026-04-30 20:47 33.92397 104.11081 38365 ft 469 kts 355°
2026-04-30 20:48 34.02211 104.11087 38324 ft 471 kts 355°
2026-04-30 20:48 34.08749 104.11091 38400 ft 470 kts 355°
2026-04-30 20:49 34.15276 104.11095 38369 ft 471 kts 355°
2026-04-30 20:50 34.25129 104.11102 38382 ft 471 kts 355°
2026-04-30 20:50 34.31678 104.11105 38395 ft 471 kts 355°
2026-04-30 20:51 34.38209 104.11105 38382 ft 471 kts 355°
2026-04-30 20:51 34.48076 104.11108 38367 ft 472 kts 355°
2026-04-30 20:52 34.54653 104.11108 38282 ft 474 kts 355°
2026-04-30 20:53 34.64520 104.11113 38401 ft 473 kts 355°
2026-04-30 20:53 34.71108 104.11112 38382 ft 473 kts 355°
2026-04-30 20:54 34.80981 104.11118 38413 ft 474 kts 354°
2026-04-30 20:55 34.90867 104.11116 38395 ft 475 kts 354°
2026-04-30 20:55 34.97474 104.11121 38407 ft 476 kts 354°
2026-04-30 20:56 35.07395 104.11128 38455 ft 475 kts 355°
2026-04-30 20:57 35.17305 104.11137 38515 ft 474 kts 354°
2026-04-30 20:57 35.23942 104.11140 38565 ft 472 kts 354°
2026-04-30 20:58 35.33786 104.11150 38545 ft 473 kts 355°
2026-04-30 20:58 35.40342 104.11161 38558 ft 472 kts 355°
2026-04-30 20:59 35.50166 104.11176 38665 ft 470 kts 355°
2026-04-30 21:00 35.63254 104.11217 38639 ft 470 kts 355°
2026-04-30 21:01 35.73011 104.11269 38733 ft 468 kts 355°
2026-04-30 21:02 35.82774 104.11240 38764 ft 465 kts 352°
2026-04-30 21:02 35.89193 104.10644 38762 ft 463 kts 349°
2026-04-30 21:03 35.95587 104.09924 38786 ft 462 kts 349°
2026-04-30 21:03 36.01986 104.09216 38862 ft 461 kts 349°
2026-04-30 21:04 36.08365 104.08518 38800 ft 462 kts 349°
2026-04-30 21:04 36.17978 104.07478 38768 ft 462 kts 349°
2026-04-30 21:05 36.24362 104.06779 38790 ft 461 kts 349°
2026-04-30 21:05 36.30754 104.06083 38780 ft 461 kts 349°
2026-04-30 21:06 36.37140 104.05379 38788 ft 460 kts 349°
2026-04-30 21:06 36.43501 104.04680 38753 ft 461 kts 349°
2026-04-30 21:07 36.49877 104.03973 38773 ft 460 kts 347°
2026-04-30 21:07 36.55960 104.02088 38767 ft 445 kts 331°
2026-04-30 21:08 36.61238 103.98337 38807 ft 432 kts 316°
2026-04-30 21:08 36.65425 103.93150 38751 ft 422 kts 302°
2026-04-30 21:09 36.68464 103.86996 38575 ft 420 kts 294°
2026-04-30 21:09 36.69860 103.83779 38468 ft 421 kts 294°
2026-04-30 21:09 36.71238 103.80581 38343 ft 424 kts 294°
2026-04-30 21:10 36.72642 103.77325 38220 ft 426 kts 294°
2026-04-30 21:10 36.74031 103.74107 38092 ft 428 kts 294°
2026-04-30 21:10 36.75451 103.70821 37965 ft 430 kts 294°
2026-04-30 21:10 36.76857 103.67560 37863 ft 432 kts 294°
2026-04-30 21:11 36.79711 103.60944 37845 ft 433 kts 294°
2026-04-30 21:11 36.82549 103.54354 37949 ft 431 kts 295°
2026-04-30 21:12 36.85370 103.47789 38048 ft 430 kts 294°
2026-04-30 21:12 36.88171 103.41264 38081 ft 429 kts 294°
2026-04-30 21:13 36.90977 103.34712 38136 ft 428 kts 293°
2026-04-30 21:13 36.93822 103.28158 38231 ft 429 kts 296°
2026-04-30 21:14 36.96949 103.21846 38278 ft 430 kts 297°
2026-04-30 21:14 37.00133 103.15517 38284 ft 430 kts 297°
2026-04-30 21:15 37.03313 103.09193 38364 ft 429 kts 297°
2026-04-30 21:15 37.06462 103.02931 38472 ft 427 kts 297°
2026-04-30 21:16 37.09625 102.96619 38542 ft 426 kts 297°
2026-04-30 21:16 37.12775 102.90367 38464 ft 428 kts 297°
2026-04-30 21:17 37.15945 102.84058 38442 ft 428 kts 297°
2026-04-30 21:17 37.19113 102.77718 38384 ft 429 kts 297°
2026-04-30 21:18 37.22263 102.71385 38350 ft 429 kts 297°
2026-04-30 21:18 37.25401 102.65069 38410 ft 428 kts 297°
2026-04-30 21:19 37.28539 102.58733 38328 ft 430 kts 297°
2026-04-30 21:19 37.31673 102.52324 38316 ft 429 kts 295°
2026-04-30 21:20 37.34374 102.45728 38362 ft 424 kts 290°
2026-04-30 21:20 37.36540 102.38886 38315 ft 422 kts 285°
2026-04-30 21:21 37.38181 102.31808 38286 ft 421 kts 281°
2026-04-30 21:22 37.40285 102.21171 38409 ft 419 kts 280°
2026-04-30 21:23 37.43063 102.06966 38444 ft 420 kts 280°
2026-04-30 21:23 37.45132 101.96292 38457 ft 420 kts 279°
2026-04-30 21:24 37.46507 101.89162 38452 ft 420 kts 280°
2026-04-30 21:24 37.47874 101.82050 38495 ft 419 kts 279°
2026-04-30 21:25 37.50178 101.71459 38438 ft 423 kts 284°
2026-04-30 21:26 37.53613 101.61201 38491 ft 427 kts 292°
2026-04-30 21:27 37.57808 101.51293 38485 ft 428 kts 292°
2026-04-30 21:27 37.60620 101.44689 38463 ft 428 kts 292°
2026-04-30 21:28 37.64817 101.34808 38584 ft 425 kts 292°
2026-04-30 21:29 37.68981 101.24948 38650 ft 425 kts 291°
2026-04-30 21:30 37.75875 101.08594 38751 ft 424 kts 292°
2026-04-30 21:31 37.82785 100.92139 38812 ft 423 kts 292°
2026-04-30 21:32 37.87064 100.82467 38914 ft 423 kts 293°
2026-04-30 21:32 37.89949 100.76010 38950 ft 421 kts 293°
2026-04-30 21:33 37.94258 100.66338 38979 ft 420 kts 293°
2026-04-30 21:34 37.97123 100.59882 38891 ft 422 kts 293°
2026-04-30 21:34 38.01399 100.50222 38902 ft 420 kts 292°
2026-04-30 21:35 38.04246 100.43767 38874 ft 420 kts 292°
2026-04-30 21:35 38.07093 100.37309 38829 ft 421 kts 292°
2026-04-30 21:36 38.09938 100.30824 38861 ft 420 kts 292°
2026-04-30 21:37 38.15633 100.17907 38887 ft 419 kts 292°
2026-04-30 21:37 38.18465 100.11454 38948 ft 418 kts 291°
2026-04-30 21:38 38.21276 100.05013 38865 ft 419 kts 291°
2026-04-30 21:38 38.24081 99.98565 38929 ft 418 kts 291°
2026-04-30 21:39 38.26883 99.92114 38930 ft 417 kts 291°
2026-04-30 21:39 38.29668 99.85689 38945 ft 417 kts 291°
2026-04-30 21:40 38.32457 99.79242 38874 ft 417 kts 291°
2026-04-30 21:40 38.35254 99.72759 38832 ft 418 kts 291°
2026-04-30 21:41 38.38042 99.66293 38839 ft 417 kts 291°
2026-04-30 21:41 38.40817 99.59832 38822 ft 417 kts 291°
2026-04-30 21:42 38.43583 99.53384 38782 ft 417 kts 291°
2026-04-30 21:42 38.46351 99.46921 38783 ft 416 kts 291°
2026-04-30 21:43 38.49119 99.40442 38821 ft 415 kts 291°
2026-04-30 21:43 38.51862 99.34011 38813 ft 415 kts 291°
2026-04-30 21:44 38.54619 99.27507 38833 ft 414 kts 291°
2026-04-30 21:44 38.57343 99.21080 38912 ft 413 kts 290°
2026-04-30 21:45 38.60084 99.14604 38910 ft 413 kts 291°
2026-04-30 21:45 38.62803 99.08176 38954 ft 412 kts 290°
2026-04-30 21:46 38.65510 99.01762 39007 ft 412 kts 290°
2026-04-30 21:46 38.68215 98.95335 39029 ft 411 kts 290°
2026-04-30 21:47 38.70908 98.88930 39036 ft 411 kts 290°
2026-04-30 21:47 38.73617 98.82471 38956 ft 412 kts 290°
2026-04-30 21:48 38.76308 98.76039 39010 ft 410 kts 290°
2026-04-30 21:48 38.78982 98.69637 38970 ft 410 kts 290°
2026-04-30 21:49 38.81665 98.63203 38962 ft 411 kts 290°
2026-04-30 21:49 38.84347 98.56753 38927 ft 411 kts 290°
2026-04-30 21:50 38.87009 98.50337 38947 ft 410 kts 290°
2026-04-30 21:50 38.89681 98.43896 38999 ft 408 kts 290°
2026-04-30 21:51 38.92340 98.37463 38919 ft 409 kts 290°
2026-04-30 21:51 38.94981 98.31046 39015 ft 407 kts 290°
2026-04-30 21:52 38.97635 98.24591 39080 ft 407 kts 289°
2026-04-30 21:52 39.00267 98.18175 39081 ft 407 kts 289°
2026-04-30 21:53 39.02887 98.11785 39091 ft 407 kts 290°
2026-04-30 21:53 39.05526 98.05337 39088 ft 407 kts 289°
2026-04-30 21:54 39.08149 97.98915 39114 ft 407 kts 289°
2026-04-30 21:54 39.10772 97.92492 39043 ft 409 kts 289°
2026-04-30 21:55 39.13436 97.86005 39027 ft 408 kts 289°
2026-04-30 21:55 39.16051 97.79601 39082 ft 406 kts 289°
2026-04-30 21:56 39.18674 97.73138 39019 ft 406 kts 290°
2026-04-30 21:56 39.21277 97.66697 38989 ft 406 kts 289°
2026-04-30 21:57 39.23858 97.60298 38954 ft 406 kts 289°
2026-04-30 21:57 39.26472 97.53825 38853 ft 406 kts 290°
2026-04-30 21:58 39.29065 97.47396 38847 ft 406 kts 290°
2026-04-30 21:58 39.31667 97.40925 38748 ft 406 kts 290°
2026-04-30 21:59 39.34257 97.34467 38602 ft 408 kts 289°
2026-04-30 22:00 39.38150 97.24725 38673 ft 408 kts 289°
2026-04-30 22:00 39.42037 97.14985 38700 ft 408 kts 289°
2026-04-30 22:01 39.44633 97.08461 38735 ft 408 kts 289°
2026-04-30 22:01 39.47226 97.01948 38722 ft 409 kts 290°
2026-04-30 22:02 39.49833 96.95438 38623 ft 410 kts 290°
2026-04-30 22:02 39.52448 96.88899 38645 ft 410 kts 290°
2026-04-30 22:03 39.55060 96.82375 38648 ft 410 kts 291°
2026-04-30 22:03 39.57686 96.75798 38636 ft 411 kts 290°
2026-04-30 22:04 39.60296 96.69244 38612 ft 411 kts 290°
2026-04-30 22:05 39.64216 96.59339 38533 ft 413 kts 290°
2026-04-30 22:05 39.66808 96.52748 38545 ft 412 kts 291°
2026-04-30 22:06 39.69408 96.46121 38492 ft 414 kts 291°
2026-04-30 22:06 39.73311 96.36145 38423 ft 414 kts 291°
2026-04-30 22:07 39.75909 96.29485 38492 ft 413 kts 291°
2026-04-30 22:07 39.78489 96.22859 38521 ft 413 kts 290°
2026-04-30 22:08 39.81073 96.16205 38546 ft 414 kts 291°
2026-04-30 22:08 39.83659 96.09547 38513 ft 415 kts 291°
2026-04-30 22:09 39.86244 96.02875 38568 ft 414 kts 291°
2026-04-30 22:09 39.88840 95.96160 38572 ft 415 kts 291°
2026-04-30 22:10 39.91421 95.89467 38555 ft 416 kts 291°
2026-04-30 22:10 39.94003 95.82765 38579 ft 417 kts 291°
2026-04-30 22:11 39.97866 95.72695 38625 ft 416 kts 292°
2026-04-30 22:12 40.00466 95.65911 38602 ft 417 kts 292°
2026-04-30 22:12 40.03044 95.59160 38566 ft 419 kts 292°
2026-04-30 22:13 40.05629 95.52380 38537 ft 420 kts 292°
2026-04-30 22:13 40.08212 95.45584 38592 ft 419 kts 292°
2026-04-30 22:14 40.10798 95.38781 38576 ft 420 kts 292°
2026-04-30 22:14 40.13408 95.31956 38596 ft 420 kts 291°
2026-04-30 22:15 40.16009 95.25088 38653 ft 420 kts 291°
2026-04-30 22:15 40.18579 95.18262 38655 ft 421 kts 292°
2026-04-30 22:16 40.21168 95.11398 38636 ft 423 kts 292°
2026-04-30 22:17 40.26394 94.97681 38664 ft 423 kts 292°
2026-04-30 22:17 40.30587 94.87500 38718 ft 426 kts 297°
2026-04-30 22:18 40.35788 94.78033 38646 ft 432 kts 303°
2026-04-30 22:19 40.41402 94.68745 38614 ft 434 kts 304°
2026-04-30 22:20 40.47021 94.59437 38550 ft 435 kts 304°
2026-04-30 22:20 40.52635 94.50110 38551 ft 437 kts 304°
2026-04-30 22:21 40.56393 94.43847 38562 ft 436 kts 304°
2026-04-30 22:21 40.60140 94.37595 38557 ft 437 kts 304°
2026-04-30 22:22 40.63884 94.31323 38589 ft 437 kts 304°
2026-04-30 22:22 40.67624 94.25037 38629 ft 437 kts 304°
2026-04-30 22:23 40.71380 94.18720 38671 ft 437 kts 304°
2026-04-30 22:23 40.75116 94.12429 38650 ft 438 kts 304°
2026-04-30 22:24 40.78858 94.06124 38683 ft 438 kts 304°
2026-04-30 22:24 40.82602 93.99809 38688 ft 439 kts 304°
2026-04-30 22:25 40.86345 93.93484 38716 ft 439 kts 304°
2026-04-30 22:25 40.90110 93.87099 38721 ft 440 kts 304°
2026-04-30 22:26 40.95967 93.77788 38719 ft 441 kts 307°
2026-04-30 22:27 40.99946 93.71622 38688 ft 443 kts 308°
2026-04-30 22:27 41.05930 93.62329 38670 ft 444 kts 308°
2026-04-30 22:28 41.11916 93.53020 38679 ft 445 kts 308°
2026-04-30 22:29 41.19929 93.40556 38725 ft 444 kts 308°
2026-04-30 22:31 41.33859 93.18620 38799 ft 445 kts 308°
2026-04-30 22:32 41.43807 93.02869 38840 ft 446 kts 308°
2026-04-30 22:33 41.53749 92.87060 38948 ft 445 kts 309°
2026-04-30 22:35 41.63618 92.71285 39050 ft 444 kts 309°
2026-04-30 22:36 41.73456 92.55472 39138 ft 442 kts 309°
2026-04-30 22:37 41.81295 92.42808 39107 ft 443 kts 309°
2026-04-30 22:38 41.89097 92.30145 39187 ft 441 kts 309°
2026-04-30 22:39 41.94939 92.20608 39197 ft 441 kts 309°
2026-04-30 22:40 42.06558 92.01610 39266 ft 440 kts 309°
2026-04-30 22:41 42.16279 91.85705 39295 ft 440 kts 309°
2026-04-30 22:43 42.28565 91.67471 39370 ft 440 kts 316°
2026-04-30 22:44 42.37428 91.56134 39368 ft 440 kts 316°
2026-04-30 22:45 42.50729 91.39028 39403 ft 440 kts 316°
2026-04-30 22:47 42.64011 91.21801 39443 ft 441 kts 315°
2026-04-30 22:48 42.72844 91.10317 39514 ft 441 kts 315°
2026-04-30 22:49 42.86002 90.92872 39423 ft 444 kts 311°
2026-04-30 22:51 42.96635 90.72254 39366 ft 445 kts 302°
2026-04-30 22:52 43.01498 90.61533 39328 ft 446 kts 302°
2026-04-30 22:53 43.07997 90.47154 39356 ft 445 kts 303°
2026-04-30 22:53 43.12883 90.36348 39313 ft 446 kts 303°
2026-04-30 22:55 43.20988 90.18266 39279 ft 449 kts 302°
2026-04-30 22:56 43.27457 90.03706 39345 ft 448 kts 302°
2026-04-30 22:57 43.35524 89.85487 39410 ft 447 kts 302°
2026-04-30 22:58 43.41930 89.70935 39377 ft 448 kts 303°
2026-04-30 22:59 43.51567 89.48925 39370 ft 449 kts 303°